Starlink 11072

operational
NORAD ID: 58705 Int'l Des: 2024-002 Owner: SPXS Country: US Constellation: starlink
LEOCIRCULAR

Starlink 11072について

説明を読み込み中...

リアルタイム位置

3D地球を読み込み中...

次回通過

高度履歴

Altitude vs Time

uPlot chart will show altitude changes over time

軌道要素

1 58705U 24002A 25352.16904321 .00000822 00000-0 11642-4 0 9996
2 58705 53.1602 315.8850 0001348 93.9536 266.1636 15.69714814113635
Epoch: Dec 18, 2025 • Age: 9 hours

現在のステータス

高度 374.3 km
速度 7.68 km/s
衛星直下点 -41.83°S, 101.94°W
打ち上げ日 Jan 3, 2024
運用期間 1.9 years
タイプ internet

技術仕様

分類 Payload
質量 960.00 kg
乾燥質量 910.00 kg
総質量 960.00 kg
長さ 0.30 m
直径 4.10 m
スパン 29.00 m
形状 Box + pan
製造者 SPXS
バスタイプ Starlink V2MD
フェーズステータス In Orbit
所有者/国 SPXS/US

大規模コンステレーション

Loading constellations...